TimeEST,TemperatureF,Dew PointF,Humidity,Sea Level PressureIn,VisibilityMPH,Wind Direction,Wind SpeedMPH,Gust SpeedMPH,PrecipitationIn,Events,Conditions,WindDirDegrees,DateUTC
12:53 AM,-9999,-9999,N/A,30.03,10.0,NE,12.7,-,N/A,,Clear,50,2013-11-23 05:53:00
1:53 AM,-9999,-9999,N/A,30.02,10.0,NE,9.2,-,N/A,,Clear,40,2013-11-23 06:53:00
2:53 AM,-9999,-9999,N/A,30.01,10.0,NE,9.2,-,N/A,,Partly Cloudy,50,2013-11-23 07:53:00
3:53 AM,-9999,-9999,N/A,30.00,10.0,NE,10.4,-,N/A,,Partly Cloudy,40,2013-11-23 08:53:00
4:53 AM,-9999,-9999,N/A,30.00,10.0,NE,13.8,-,N/A,,Partly Cloudy,50,2013-11-23 09:53:00
5:53 AM,-9999,-9999,N/A,30.00,10.0,NE,10.4,-,N/A,,Partly Cloudy,50,2013-11-23 10:53:00
5:57 AM,75.2,71.6,89,30.00,10.0,NE,12.7,18.4,N/A,,Scattered Clouds,50,2013-11-23 10:57:00
6:53 AM,76.3,70.7,83,30.01,10.0,NE,9.2,-,N/A,,Scattered Clouds,50,2013-11-23 11:53:00
7:53 AM,76.5,71.8,85,30.02,10.0,NE,12.7,-,N/A,,Scattered Clouds,50,2013-11-23 12:53:00
8:53 AM,76.5,71.8,85,30.04,10.0,ENE,12.7,-,N/A,,Scattered Clouds,70,2013-11-23 13:53:00
9:53 AM,79.2,72.1,79,30.05,10.0,ENE,9.2,19.6,N/A,,Scattered Clouds,60,2013-11-23 14:53:00
10:53 AM,80.1,72.1,77,30.04,10.0,East,12.7,-,N/A,,Mostly Cloudy,80,2013-11-23 15:53:00
11:53 AM,82.0,72.0,71,30.02,10.0,East,12.7,-,N/A,,Mostly Cloudy,80,2013-11-23 16:53:00
12:53 PM,82.0,72.0,71,29.99,10.0,East,12.7,-,N/A,,Mostly Cloudy,90,2013-11-23 17:53:00
1:53 PM,82.4,71.6,70,29.97,10.0,East,12.7,-,N/A,,Mostly Cloudy,90,2013-11-23 18:53:00
2:53 PM,82.4,71.6,70,29.96,10.0,East,12.7,-,N/A,,Mostly Cloudy,90,2013-11-23 19:53:00
3:53 PM,82.4,71.6,70,29.96,10.0,East,12.7,-,N/A,,Scattered Clouds,90,2013-11-23 20:53:00
4:53 PM,80.6,71.6,74,29.97,10.0,East,11.5,-,N/A,,Scattered Clouds,80,2013-11-23 21:53:00
5:53 PM,78.8,71.6,78,29.98,10.0,East,9.2,-,N/A,,Scattered Clouds,80,2013-11-23 22:53:00
6:53 PM,77.0,69.8,78,29.99,10.0,ENE,6.9,-,N/A,,Scattered Clouds,70,2013-11-23 23:53:00
7:53 PM,77.0,69.8,78,30.00,10.0,ENE,4.6,-,N/A,,Scattered Clouds,60,2013-11-24 00:53:00
8:53 PM,77.0,71.6,83,30.01,10.0,ENE,5.8,-,N/A,,Scattered Clouds,60,2013-11-24 01:53:00
9:53 PM,77.0,71.6,83,30.01,10.0,NE,4.6,-,N/A,,Scattered Clouds,50,2013-11-24 02:53:00
10:53 PM,-9999,-9999,N/A,30.02,10.0,ENE,4.6,-,N/A,,Clear,60,2013-11-24 03:53:00
11:53 PM,-9999,-9999,N/A,30.01,10.0,NE,3.5,-,N/A,,Clear,40,2013-11-24 04:53:00